DECAYED
Showing default

FLOCK 1C 2, 40029 (Decayed)

Orbit data source: Space-Track

FLOCK 1C 2, 40029 was a payload satellite owned by Planet Labs (US) in LEO that was launched on Thu, 19 Jun 2014 UTC via a DNEPR launch vehicle from the Orenburg, Russia (OREN). Payload-class satellites include a variety of spacecraft equipped with specific instruments for various scientific and technological missions. These include communications satellites like Starlink; space stations such as the ISS; scientific satellites like the Hubble; Earth observation satellites from companies like Planet Labs, Umbra, and HawkEye 360; GPS; miniature CubeSats for education and research; and military/defense satellites.

Loading next visibility...
Identifier
40029, 2014-033V
Orbit
Decayed
Country
Flag of USUS
Related business
Manufacturer
Planet Labs
Mission
Decayed Commercial Imaging
Bus & Motor
CUBESAT 3U, Unknown motor
Mass
4.25 kg wet, 4.25 kg dry
Launch date (UTC)
2014-06-19 (12 years ago)
Launch vehicle
DNEPR
Launch site
Orenburg, Russia (OREN)
Object type
Payload
Rocket body
Debris
Shape & HBR
Box + 2 Pan, 1.0 m
Radar Cross Section
0.108 m², Small (<0.1 m²)

Expand to show TLE details & history
Last TLE update: 11 months ago

TLE from 11 months ago
0 FLOCK 1C 2
1 40029U 14033V   25092.20366539  .16569674  30604-5  16122-2 0  9994
2 40029  98.0992 112.1216 0009613 229.8458 130.1997 16.38282642588086
Epoch: 2025-04-02T04:53Z
TLE epoch observation values (Epoch: 2025-04-02T04:53:16.689Z)
Latitude
-0.00005°
Longitude
-151.99215°
Altitude
177.67 km
Speed
7.797 km/s
True Right ascension
07h 28m 29s
True Declination
0° 00' 00"
Sunlit
Object was in daylight at epoch
Visualization orbit readout
Latitude
Unknown
Longitude
Unknown
Altitude
Unknown
Speed
Unknown
Apparent Right ascension
Unknown
Apparent Declination
Unknown
Sunlit
N/A
Visualization observer readout
Local Sidereal Time
20:07:01
Azimuth
Unknown
Elevation
Unknown
Doppler factor
Unknown
Orbital elements
Apogee altitude
173.51 km
Perigee altitude
160.926 km
Semi-major axis
6,545.355 km
Eccentricity
0.00096
Inclination
98.0992°
RAAN
112.1216°
Arg. of periapsis
229.8458°
True anomaly
130.28377°
Mean anomaly
130.1997°
Eccentric anomaly
130.24174°
Mean motion
4.09867 °/min
Orbital period
87.83 mins
BSTAR
0.0016122
Loading maneuver chart data...
Computing Atmospheric mass density...
Loading historical data...
Loading historical data...
Loading historical data...
Loading historical data...
Loading historical data...
Loading historical data...
Loading historical data...

Documentation

Showing up to 5 results
|